UAL765 KPHX-KSFO

Flight info

Callsign UAL765
Flight time 1h 40m
Altitude 38000
Route KEENS3 HRRBR CURIV J212 DECAS PMD AVE MAKRS SERFR SERFR4
Aircraft B737/M-SDE2E3FGHIRWXY/LB1

Departure

Time 2026-05-04 01:17
Airport Phoenix Sky Harbor International Airport (KPHX)

Arrival

Time 2026-05-04 02:57
Airport San Francisco International Airport (KSFO)
Time Latitude Longitude Altitude Speed Heading
2026-05-04 01:10 33.43385 -112.00921 1123 ft 0 kts 360°
2026-05-04 01:11 33.43380 -112.00921 1123 ft 2 kts 360°
2026-05-04 01:12 33.43363 -112.00921 1119 ft 2 kts 360°
2026-05-04 01:12 33.43346 -112.00921 1113 ft 2 kts 360°
2026-05-04 01:12 33.43341 -112.00921 1120 ft 0 kts 360°
2026-05-04 01:12 33.43342 -112.00921 1120 ft 0 kts
2026-05-04 01:13 33.43346 -112.00915 1113 ft 3 kts 46°
2026-05-04 01:13 33.43331 -112.00852 1115 ft 18 kts 111°
2026-05-04 01:13 33.43293 -112.00727 1121 ft 26 kts 99°
2026-05-04 01:13 33.43286 -112.00547 1117 ft 20 kts 90°
2026-05-04 01:14 33.43284 -112.00374 1122 ft 22 kts 91°
2026-05-04 01:14 33.43283 -112.00189 1118 ft 22 kts 89°
2026-05-04 01:14 33.43284 -112.00007 1120 ft 21 kts 89°
2026-05-04 01:14 33.43284 -111.99831 1123 ft 21 kts 90°
2026-05-04 01:15 33.43283 -111.99660 1120 ft 20 kts 90°
2026-05-04 01:15 33.43279 -111.99495 1123 ft 20 kts 91°
2026-05-04 01:15 33.43242 -111.99352 1119 ft 19 kts 155°
2026-05-04 01:15 33.43119 -111.99367 1116 ft 18 kts 227°
2026-05-04 01:16 33.43103 -111.99512 1122 ft 18 kts 270°
2026-05-04 01:16 33.43103 -111.99774 1123 ft 67 kts 270°
2026-05-04 01:16 33.43103 -112.00659 1125 ft 143 kts 270°
2026-05-04 01:16 33.43096 -112.02076 1394 ft 193 kts 269°
2026-05-04 01:17 33.43070 -112.03780 1984 ft 214 kts 266°
2026-05-04 01:17 33.43036 -112.05667 2486 ft 239 kts 264°
2026-05-04 01:17 33.42802 -112.07759 2657 ft 269 kts 250°
2026-05-04 01:17 33.42133 -112.09808 3606 ft 253 kts 246°
2026-05-04 01:18 33.41545 -112.11654 4988 ft 229 kts 246°
2026-05-04 01:18 33.40982 -112.13452 5709 ft 232 kts 247°
2026-05-04 01:18 33.40409 -112.15294 6301 ft 244 kts 246°
2026-05-04 01:18 33.39784 -112.17302 6713 ft 266 kts 247°
2026-05-04 01:19 33.39220 -112.19428 7596 ft 273 kts 258°
2026-05-04 01:19 33.39281 -112.21729 8557 ft 281 kts 273°
2026-05-04 01:19 33.39609 -112.24069 9410 ft 289 kts 276°
2026-05-04 01:19 33.39983 -112.26464 10218 ft 295 kts 276°
2026-05-04 01:20 33.40373 -112.28958 10631 ft 318 kts 277°
2026-05-04 01:20 33.40791 -112.31668 10845 ft 343 kts 276°
2026-05-04 01:20 33.41228 -112.34529 11395 ft 354 kts 277°
2026-05-04 01:20 33.41670 -112.37444 12198 ft 358 kts 277°
2026-05-04 01:21 33.42112 -112.40385 13047 ft 360 kts 276°
2026-05-04 01:21 33.42552 -112.43335 13892 ft 360 kts 276°
2026-05-04 01:21 33.42990 -112.46292 14677 ft 361 kts 276°
2026-05-04 01:21 33.43425 -112.49241 15520 ft 360 kts 276°
2026-05-04 01:22 33.43858 -112.52190 16321 ft 361 kts 276°
2026-05-04 01:22 33.44293 -112.55152 17102 ft 362 kts 276°
2026-05-04 01:22 33.44728 -112.58126 17859 ft 364 kts 276°
2026-05-04 01:22 33.45112 -112.61122 18511 ft 364 kts 271°
2026-05-04 01:23 33.45209 -112.64148 19155 ft 364 kts 268°
2026-05-04 01:23 33.45197 -112.67180 19797 ft 365 kts 267°
2026-05-04 01:23 33.45181 -112.70226 20425 ft 367 kts 268°
2026-05-04 01:23 33.45193 -112.73246 21048 ft 368 kts 268°
2026-05-04 01:24 33.45225 -112.76321 21666 ft 370 kts 269°
2026-05-04 01:24 33.45270 -112.79408 22250 ft 372 kts 270°
2026-05-04 01:24 33.45599 -112.82503 22784 ft 377 kts 278°
2026-05-04 01:24 33.46175 -112.85580 23335 ft 380 kts 280°
2026-05-04 01:25 33.46792 -112.88662 23809 ft 381 kts 280°
2026-05-04 01:25 33.47412 -112.91755 24295 ft 382 kts 280°
2026-05-04 01:25 33.48045 -112.94973 24793 ft 382 kts 280°
2026-05-04 01:25 33.48620 -112.97953 25250 ft 383 kts 279°
2026-05-04 01:26 33.49211 -113.01070 25689 ft 384 kts 279°
2026-05-04 01:26 33.49797 -113.04194 26129 ft 385 kts 279°
2026-05-04 01:26 33.50382 -113.07334 26540 ft 387 kts 279°
2026-05-04 01:26 33.50966 -113.10485 26964 ft 388 kts 279°
2026-05-04 01:27 33.51550 -113.13641 27415 ft 389 kts 279°
2026-05-04 01:27 33.52136 -113.16811 27816 ft 390 kts 279°
2026-05-04 01:27 33.52722 -113.19987 28199 ft 391 kts 279°
2026-05-04 01:27 33.53310 -113.23178 28577 ft 393 kts 279°
2026-05-04 01:28 33.53897 -113.26371 29080 ft 391 kts 279°
2026-05-04 01:28 33.54480 -113.29533 29736 ft 386 kts 279°
2026-05-04 01:28 33.55053 -113.32652 30353 ft 380 kts 279°
2026-05-04 01:28 33.55614 -113.35704 31047 ft 371 kts 279°
2026-05-04 01:29 33.56163 -113.38710 31584 ft 367 kts 279°
2026-05-04 01:29 33.56710 -113.41714 31727 ft 372 kts 279°
2026-05-04 01:29 33.57262 -113.44739 32105 ft 369 kts 278°
2026-05-04 01:30 33.58359 -113.50769 32162 ft 372 kts 278°
2026-05-04 01:30 33.59488 -113.56854 32169 ft 375 kts 279°
2026-05-04 01:31 33.60628 -113.62937 32161 ft 377 kts 279°
2026-05-04 01:31 33.61774 -113.69076 32146 ft 377 kts 279°
2026-05-04 01:32 33.62914 -113.75211 32079 ft 376 kts 278°
2026-05-04 01:32 33.64047 -113.81328 31997 ft 374 kts 278°
2026-05-04 01:33 33.65169 -113.87410 31928 ft 372 kts 278°
2026-05-04 01:33 33.66281 -113.93461 31848 ft 371 kts 278°
2026-05-04 01:34 33.67388 -113.99499 31771 ft 369 kts 278°
2026-05-04 01:34 33.68488 -114.05516 31762 ft 370 kts 278°
2026-05-04 01:35 33.69589 -114.11568 31745 ft 372 kts 278°
2026-05-04 01:35 33.70685 -114.17604 31749 ft 372 kts 278°
2026-05-04 01:36 33.71787 -114.23684 31758 ft 373 kts 278°
2026-05-04 01:36 33.72885 -114.29765 31749 ft 372 kts 278°
2026-05-04 01:37 33.74032 -114.35833 31772 ft 374 kts 281°
2026-05-04 01:37 33.75561 -114.41827 31741 ft 375 kts 282°
2026-05-04 01:38 33.77137 -114.47802 31739 ft 375 kts 282°
2026-05-04 01:38 33.78695 -114.53787 31737 ft 375 kts 282°
2026-05-04 01:39 33.80231 -114.59762 31729 ft 373 kts 282°
2026-05-04 01:39 33.81759 -114.65714 31758 ft 372 kts 282°
2026-05-04 01:40 33.83282 -114.71682 31752 ft 373 kts 282°
2026-05-04 01:40 33.84797 -114.77661 31744 ft 374 kts 282°
2026-05-04 01:41 33.86301 -114.83601 31737 ft 373 kts 281°
2026-05-04 01:41 33.87807 -114.89554 31760 ft 372 kts 281°
2026-05-04 01:42 33.89310 -114.95508 31751 ft 372 kts 281°
2026-05-04 01:42 33.90720 -115.01109 31741 ft 372 kts 281°
2026-05-04 01:43 33.92103 -115.06611 31746 ft 372 kts 281°
2026-05-04 01:43 33.93598 -115.12575 31743 ft 372 kts 281°
2026-05-04 01:44 33.95094 -115.18556 31750 ft 373 kts 281°
2026-05-04 01:44 33.96590 -115.24550 31741 ft 374 kts 281°
2026-05-04 01:45 33.98085 -115.30548 31752 ft 374 kts 281°
2026-05-04 01:45 34.00316 -115.39505 31797 ft 374 kts 281°
2026-05-04 01:46 34.01798 -115.45508 31769 ft 371 kts 281°
2026-05-04 01:46 34.03269 -115.51468 31754 ft 371 kts 281°
2026-05-04 01:47 34.04735 -115.57412 31766 ft 369 kts 281°
2026-05-04 01:47 34.06193 -115.63343 31767 ft 369 kts 281°
2026-05-04 01:48 34.07649 -115.69281 31767 ft 370 kts 281°
2026-05-04 01:48 34.09112 -115.75260 31775 ft 373 kts 280°
2026-05-04 01:49 34.10581 -115.81289 31791 ft 376 kts 281°
2026-05-04 01:49 34.12061 -115.87356 31806 ft 377 kts 281°
2026-05-04 01:50 34.13539 -115.93432 31841 ft 378 kts 281°
2026-05-04 01:50 34.15013 -115.99508 31853 ft 377 kts 280°
2026-05-04 01:51 34.16480 -116.05566 31865 ft 375 kts 280°
2026-05-04 01:51 34.17926 -116.11555 31882 ft 373 kts 280°
2026-05-04 01:52 34.19371 -116.17557 31882 ft 371 kts 280°
2026-05-04 01:52 34.20806 -116.23533 31881 ft 370 kts 280°
2026-05-04 01:53 34.22234 -116.29494 31799 ft 369 kts 279°
2026-05-04 01:53 34.23659 -116.35453 31799 ft 369 kts 279°
2026-05-04 01:54 34.25081 -116.41418 31807 ft 370 kts 280°
2026-05-04 01:54 34.26505 -116.47410 31792 ft 372 kts 280°
2026-05-04 01:55 34.27935 -116.53437 31783 ft 373 kts 280°
2026-05-04 01:55 34.29365 -116.59472 31763 ft 373 kts 279°
2026-05-04 01:56 34.30791 -116.65504 31797 ft 373 kts 279°
2026-05-04 01:56 34.32204 -116.71500 31785 ft 373 kts 279°
2026-05-04 01:57 34.33619 -116.77519 31820 ft 372 kts 279°
2026-05-04 01:57 34.35030 -116.83531 31816 ft 371 kts 279°
2026-05-04 01:58 34.36437 -116.89546 31884 ft 371 kts 279°
2026-05-04 01:58 34.37845 -116.95578 31850 ft 372 kts 279°
2026-05-04 01:59 34.39249 -117.01612 31857 ft 373 kts 279°
2026-05-04 01:59 34.40658 -117.07639 31854 ft 372 kts 279°
2026-05-04 02:00 34.42053 -117.13666 31876 ft 371 kts 279°
2026-05-04 02:00 34.43441 -117.19694 31879 ft 372 kts 279°
2026-05-04 02:01 34.44824 -117.25704 31870 ft 372 kts 279°
2026-05-04 02:01 34.46209 -117.31725 31923 ft 370 kts 279°
2026-05-04 02:02 34.47587 -117.37728 31928 ft 369 kts 279°
2026-05-04 02:02 34.48960 -117.43730 31937 ft 370 kts 279°
2026-05-04 02:03 34.50333 -117.49744 31943 ft 371 kts 279°
2026-05-04 02:03 34.51705 -117.55771 31924 ft 371 kts 279°
2026-05-04 02:04 34.52843 -117.60781 31910 ft 371 kts 278°
2026-05-04 02:04 34.54211 -117.66815 31896 ft 371 kts 278°
2026-05-04 02:05 34.55796 -117.73821 31908 ft 371 kts 278°
2026-05-04 02:05 34.57156 -117.79855 31881 ft 371 kts 278°
2026-05-04 02:06 34.58293 -117.84910 31915 ft 370 kts 278°
2026-05-04 02:06 34.59647 -117.90947 31929 ft 371 kts 278°
2026-05-04 02:07 34.61002 -117.96996 31927 ft 372 kts 278°
2026-05-04 02:07 34.62352 -118.03013 31927 ft 373 kts 280°
2026-05-04 02:08 34.64435 -118.08888 31936 ft 386 kts 291°
2026-05-04 02:08 34.67405 -118.14396 31934 ft 390 kts 294°
2026-05-04 02:09 34.70408 -118.19867 31933 ft 388 kts 293°
2026-05-04 02:09 34.73386 -118.25325 31948 ft 387 kts 293°
2026-05-04 02:10 34.76347 -118.30782 31942 ft 387 kts 293°
2026-05-04 02:10 34.79302 -118.36245 31932 ft 386 kts 293°
2026-05-04 02:11 34.82254 -118.41711 31931 ft 386 kts 293°
2026-05-04 02:11 34.85204 -118.47182 31921 ft 387 kts 293°
2026-05-04 02:12 34.88153 -118.52660 31937 ft 387 kts 293°
2026-05-04 02:12 34.91101 -118.58149 31934 ft 387 kts 293°
2026-05-04 02:13 34.94058 -118.63651 31927 ft 388 kts 293°
2026-05-04 02:13 34.95771 -118.66257 31888 ft 408 kts 308°
2026-05-04 02:13 34.98122 -118.68294 31958 ft 409 kts 306°
2026-05-04 02:14 34.98535 -118.70928 31139 ft 355 kts 233°
2026-05-04 02:14 34.96586 -118.72903 31311 ft 362 kts 230°
2026-05-04 02:14 34.95191 -118.75379 31532 ft 354 kts 248°
2026-05-04 02:14 34.94465 -118.78251 31668 ft 355 kts 257°
2026-05-04 02:15 34.94125 -118.81244 31777 ft 360 kts 264°
2026-05-04 02:15 34.94199 -118.84328 31837 ft 368 kts 271°
2026-05-04 02:15 34.94785 -118.87392 31874 ft 378 kts 283°
2026-05-04 02:15 34.95851 -118.90344 31908 ft 383 kts 287°
2026-05-04 02:16 34.98576 -118.96025 31955 ft 391 kts 291°
2026-05-04 02:16 35.01487 -119.01659 31924 ft 393 kts 292°
2026-05-04 02:17 35.04451 -119.07279 31912 ft 394 kts 292°
2026-05-04 02:17 35.07348 -119.12932 31910 ft 393 kts 291°
2026-05-04 02:18 35.10225 -119.18621 31922 ft 400 kts 291°
2026-05-04 02:18 35.13164 -119.24411 31906 ft 401 kts 292°
2026-05-04 02:19 35.16026 -119.30033 31921 ft 403 kts 291°
2026-05-04 02:19 35.18981 -119.35848 31909 ft 403 kts 291°
2026-05-04 02:20 35.21935 -119.41670 31921 ft 403 kts 291°
2026-05-04 02:20 35.24885 -119.47495 31909 ft 403 kts 291°
2026-05-04 02:21 35.27829 -119.53319 31929 ft 402 kts 291°
2026-05-04 02:21 35.30777 -119.59162 31933 ft 404 kts 291°
2026-05-04 02:22 35.33700 -119.65031 31943 ft 402 kts 291°
2026-05-04 02:22 35.36642 -119.70890 31943 ft 404 kts 291°
2026-05-04 02:23 35.39604 -119.76736 31958 ft 404 kts 291°
2026-05-04 02:23 35.42560 -119.82580 31966 ft 404 kts 292°
2026-05-04 02:24 35.45579 -119.88424 31982 ft 406 kts 292°
2026-05-04 02:24 35.48458 -119.94338 31990 ft 400 kts 289°
2026-05-04 02:25 35.51274 -120.00223 31979 ft 405 kts 291°
2026-05-04 02:25 35.54270 -120.06081 31989 ft 405 kts 292°
2026-05-04 02:26 35.57216 -120.11968 32036 ft 404 kts 291°
2026-05-04 02:26 35.60134 -120.17874 32011 ft 404 kts 291°
2026-05-04 02:27 35.63054 -120.23777 32001 ft 404 kts 291°
2026-05-04 02:27 35.65974 -120.29681 32024 ft 404 kts 291°
2026-05-04 02:28 35.68811 -120.35622 32011 ft 398 kts 286°
2026-05-04 02:28 35.71119 -120.41766 32062 ft 395 kts 285°
2026-05-04 02:29 35.73458 -120.47903 32035 ft 396 kts 285°
2026-05-04 02:29 35.75787 -120.54002 32038 ft 396 kts 285°
2026-05-04 02:30 35.78127 -120.60145 32033 ft 396 kts 285°
2026-05-04 02:30 35.80462 -120.66289 32031 ft 396 kts 285°
2026-05-04 02:31 35.82785 -120.72445 32010 ft 394 kts 284°
2026-05-04 02:31 35.85066 -120.78597 32034 ft 395 kts 285°
2026-05-04 02:32 35.87270 -120.84360 32025 ft 395 kts 285°
2026-05-04 02:32 35.89388 -120.89931 32014 ft 395 kts 285°
2026-05-04 02:33 35.91691 -120.96040 32009 ft 395 kts 285°
2026-05-04 02:33 35.94014 -121.02204 32008 ft 397 kts 285°
2026-05-04 02:34 35.96331 -121.08397 32016 ft 399 kts 285°
2026-05-04 02:34 35.98655 -121.14623 32009 ft 400 kts 285°
2026-05-04 02:35 36.00986 -121.20869 32008 ft 401 kts 285°
2026-05-04 02:35 36.03319 -121.27128 32020 ft 402 kts 285°
2026-05-04 02:36 36.04486 -121.30268 31844 ft 404 kts 285°
2026-05-04 02:36 36.05679 -121.33413 31411 ft 403 kts 289°
2026-05-04 02:36 36.07381 -121.36238 30927 ft 416 kts 302°
2026-05-04 02:36 36.09481 -121.38751 30241 ft 426 kts 310°
2026-05-04 02:37 36.11894 -121.40911 29610 ft 431 kts 317°
2026-05-04 02:37 36.14461 -121.42838 29029 ft 431 kts 320°
2026-05-04 02:37 36.17043 -121.44695 28439 ft 427 kts 322°
2026-05-04 02:37 36.19596 -121.46509 27917 ft 420 kts 321°
2026-05-04 02:38 36.22074 -121.48387 27361 ft 416 kts 320°
2026-05-04 02:38 36.24516 -121.50277 26798 ft 412 kts 321°
2026-05-04 02:38 36.26924 -121.52152 26360 ft 406 kts 321°
2026-05-04 02:38 36.29260 -121.53985 26033 ft 399 kts 321°
2026-05-04 02:39 36.31586 -121.55814 25660 ft 392 kts 322°
2026-05-04 02:39 36.33875 -121.57613 25286 ft 387 kts 323°
2026-05-04 02:39 36.36142 -121.59393 24916 ft 384 kts 323°
2026-05-04 02:39 36.38389 -121.61155 24576 ft 380 kts 324°
2026-05-04 02:40 36.40635 -121.62922 24250 ft 389 kts 324°
2026-05-04 02:40 36.42960 -121.64754 23925 ft 402 kts 326°
2026-05-04 02:40 36.45345 -121.66627 23577 ft 406 kts 326°
2026-05-04 02:40 36.47728 -121.68498 23162 ft 405 kts 326°
2026-05-04 02:41 36.50105 -121.70365 22758 ft 402 kts 326°
2026-05-04 02:41 36.52463 -121.72225 22341 ft 400 kts 326°
2026-05-04 02:41 36.54804 -121.74075 21945 ft 397 kts 326°
2026-05-04 02:41 36.57130 -121.75914 21543 ft 395 kts 326°
2026-05-04 02:42 36.59437 -121.77742 21151 ft 391 kts 326°
2026-05-04 02:42 36.61720 -121.79550 20765 ft 386 kts 326°
2026-05-04 02:42 36.63966 -121.81331 20391 ft 380 kts 326°
2026-05-04 02:42 36.66178 -121.83085 20016 ft 375 kts 326°
2026-05-04 02:43 36.68370 -121.84825 19570 ft 372 kts 326°
2026-05-04 02:43 36.70561 -121.86534 19112 ft 371 kts 330°
2026-05-04 02:43 36.72977 -121.87476 18640 ft 372 kts 355°
2026-05-04 02:43 36.75559 -121.87387 18221 ft 370 kts
2026-05-04 02:44 36.78107 -121.87026 17716 ft 368 kts
2026-05-04 02:44 36.80650 -121.86693 17222 ft 367 kts
2026-05-04 02:44 36.83191 -121.86491 16728 ft 365 kts
2026-05-04 02:44 36.85724 -121.86319 16247 ft 364 kts
2026-05-04 02:45 36.88244 -121.86154 15784 ft 361 kts
2026-05-04 02:45 36.90739 -121.85996 15357 ft 355 kts
2026-05-04 02:45 36.93168 -121.85844 14924 ft 344 kts
2026-05-04 02:45 36.95533 -121.85697 14514 ft 338 kts
2026-05-04 02:46 36.97893 -121.85552 14125 ft 341 kts
2026-05-04 02:46 37.00271 -121.85628 13706 ft 344 kts 355°
2026-05-04 02:46 37.02661 -121.85942 13256 ft 347 kts 353°
2026-05-04 02:46 37.05107 -121.86311 12811 ft 348 kts 353°
2026-05-04 02:47 37.07443 -121.86674 12372 ft 341 kts 353°
2026-05-04 02:47 37.09770 -121.87044 11932 ft 332 kts 353°
2026-05-04 02:47 37.12030 -121.87410 11517 ft 323 kts 353°
2026-05-04 02:47 37.14236 -121.87775 11122 ft 316 kts 353°
2026-05-04 02:48 37.16404 -121.88143 10767 ft 313 kts 352°
2026-05-04 02:48 37.18518 -121.88752 10393 ft 311 kts 344°
2026-05-04 02:48 37.20605 -121.89531 10031 ft 315 kts 343°
2026-05-04 02:48 37.22715 -121.90345 9663 ft 318 kts 343°
2026-05-04 02:49 37.24762 -121.91142 9286 ft 316 kts 343°
2026-05-04 02:49 37.26741 -121.91920 8890 ft 313 kts 343°
2026-05-04 02:49 37.28816 -121.92742 8505 ft 312 kts 343°
2026-05-04 02:49 37.30877 -121.93565 8121 ft 309 kts 343°
2026-05-04 02:50 37.32897 -121.94378 7740 ft 301 kts 343°
2026-05-04 02:50 37.34853 -121.95205 7361 ft 293 kts 338°
2026-05-04 02:50 37.36644 -121.96372 6982 ft 287 kts 329°
2026-05-04 02:50 37.38365 -121.97693 6635 ft 292 kts 328°
2026-05-04 02:51 37.40092 -121.99041 6287 ft 293 kts 328°
2026-05-04 02:51 37.41823 -122.00399 5926 ft 293 kts 328°
2026-05-04 02:51 37.43554 -122.01752 5582 ft 293 kts 328°
2026-05-04 02:51 37.45272 -122.03087 5273 ft 286 kts 327°
2026-05-04 02:52 37.46941 -122.04363 4961 ft 277 kts 327°
2026-05-04 02:52 37.48594 -122.05615 4670 ft 276 kts 327°
2026-05-04 02:52 37.50188 -122.06939 4361 ft 274 kts 322°
2026-05-04 02:52 37.51427 -122.08650 4041 ft 268 kts 292°
2026-05-04 02:53 37.52014 -122.10838 3774 ft 263 kts 284°
2026-05-04 02:53 37.52513 -122.13017 3453 ft 254 kts 284°
2026-05-04 02:53 37.52999 -122.15110 3150 ft 244 kts 284°
2026-05-04 02:53 37.53467 -122.17108 2991 ft 229 kts 284°
2026-05-04 02:54 37.54086 -122.18885 2952 ft 215 kts 297°
2026-05-04 02:54 37.54798 -122.20492 2729 ft 206 kts 294°
2026-05-04 02:54 37.55443 -122.22071 2470 ft 200 kts 293°
2026-05-04 02:54 37.56079 -122.23611 2199 ft 196 kts 294°
2026-05-04 02:55 37.57296 -122.26535 1707 ft 181 kts 295°
2026-05-04 02:55 37.57877 -122.27928 1463 ft 178 kts 294°
2026-05-04 02:55 37.58445 -122.29288 1206 ft 173 kts 295°
2026-05-04 02:56 37.58993 -122.30603 991 ft 163 kts 295°
2026-05-04 02:56 37.59494 -122.31801 754 ft 147 kts 293°
2026-05-04 02:56 37.59950 -122.32895 562 ft 139 kts 292°
2026-05-04 02:56 37.60403 -122.33981 390 ft 140 kts 291°
2026-05-04 02:57 37.60852 -122.35053 225 ft 138 kts 292°
2026-05-04 02:57 37.61297 -122.36136 54 ft 136 kts 292°
2026-05-04 02:57 37.61688 -122.37102 23 ft 115 kts 296°
2026-05-04 02:57 37.61944 -122.37695 21 ft 42 kts 296°
2026-05-04 02:58 37.61990 -122.37858 21 ft 18 kts 261°
2026-05-04 02:58 37.61937 -122.37970 22 ft 18 kts 233°
2026-05-04 02:58 37.61923 -122.38120 21 ft 18 kts 297°
2026-05-04 02:58 37.61915 -122.38266 21 ft 17 kts 243°
2026-05-04 02:59 37.61923 -122.38361 21 ft 0 kts 292°